Погода в Улубее

Турция     38°25′01″N   29°17′27″E
темп.,
°C
ветер,
м/с
пор.,
м/с
влажн.,
%
обл.,
%
осадки,
мм/ч
давл.,
гПа
погр.,
м
26 июля, пн
пн2600:00+19ссв22540 0.0 101332
03:00+18ссв33540 0.0 101347
06:00+17ссв33610 0.0 101449
09:00+22ссв34430 0.0 1014519
12:00+28с34270 0.0 10131977
15:00+32с44203 0.0 10123102
18:00+32ссв652043 0.0 10113110
21:00+26св611320 0.0 1013289
27 июля, вт
вт2700:00+21св58510 0.0 1016154
03:00+18ссв35650 0.0 101776
06:00+17св35670 0.0 101788
09:00+24ссв58440 0.0 1017699
12:00+30всв67220 0.0 10151995
15:00+34св67120 0.0 10132807
18:00+33св87150 0.0 10122711
21:00+26св58290 0.0 1014139
28 июля, ср
ср2800:00+22св46430 0.0 101587
03:00+21св512480 0.0 1015251
06:00+21св712520 0.0 1015280
09:00+25всв912320 0.0 1015914
12:00+31всв910200 0.0 10131851
15:00+34св99140 0.0 10112411
18:00+33всв99160 0.0 10102527
21:00+27св47300 0.0 1011106
29 июля, чт
чт2900:00+23ссв46400 0.0 101393
03:00+21ссв511420 0.0 1012197
06:00+20св58440 0.0 1012117
09:00+26св710260 0.0 1012830
12:00+32всв89160 0.0 10101710
15:00+35св77120 0.0 10082651
18:00+34св98140 0.0 10072621
21:00+26ссв58260 0.0 1009122
30 июля, пт
пт3000:00+23ссв45340 0.0 101063
03:00+21ссв34370 0.0 101058
06:00+20ссв34410 0.0 101052
09:00+26св45290 0.0 1010510
12:00+32ссв35150 0.0 10082235
15:00+36ссв65110 0.0 10063221
18:00+34ссв96140 0.0 10062696
21:00+27ссв47230 0.0 1008107